Regional Weather Roundup
Issued by NWS

Home | Current Version | Previous Version | Text Only | Print | Product List | Glossary On
Versions: 1 2 3 4 5 6 7 8 9 10 11 12 13 14 15 16 17 18 19 20 21 22 23 24 25 26 27 28 29 30 31 32 33 34 35 36 37 38 39 40 41 42 43 44 45 46 47 48 49 50
074
ASUS44 KFWD 261915
RWRTX
NORTH TEXAS HOURLY WEATHER ROUNDUP
NATIONAL WEATHER SERVICE FORT WORTH TX
100 PM CST SUN FEB 26 2017

NOTE: "FAIR" INDICATES FEW OR NO CLOUDS BELOW 12,000 FEET WITH NO
SIGNIFICANT WEATHER AND/OR OBSTRUCTIONS TO VISIBILITY.

TXZ118-119-262000-
DALLAS/FORT WORTH METROPLEX

CITY           SKY/WX    TMP DP  RH WIND       PRES   REMARKS
DFW AIRPORT    CLOUDY    62  46  55 S13       29.93F
DALLAS LOVE    CLOUDY    61  46  57 S13       29.95F
FTW MEACHAM    CLOUDY    60  46  59 S13       29.93F
DAL-EXECUTIVE  CLOUDY    60  48  64 S12G21    29.93F
FTW-ALLIANCE   CLOUDY    59  45  59 S14G22    29.93F
FTW-NAS-JRB    CLOUDY    61  47  59 S14       29.94F
FTW-SPINKS     CLOUDY    59  48  67 S14G22    29.95F
ARLINGTON      CLOUDY    60  47  61 S20G26    29.94F
GRAND PRAIRIE  PTSUNNY   61  46  59 S7G18     29.96F
ADDISON        CLOUDY    59  45  58 S13G22    29.95F
MESQUITE       CLOUDY    57  45  62 SE7       29.97F
LANCASTER      CLOUDY    60  48  65 S15       29.96F
$$

TXZ091>094-102>105-117-120-121-131>134-262000-
NORTH CENTRAL TEXAS

CITY           SKY/WX    TMP DP  RH WIND       PRES   REMARKS
SHRMAN/DENISON CLOUDY    57  45  62 S14       29.96F
GAINESVILLE    PTSUNNY   59  42  53 S18       29.94F
BOWIE          MOSUNNY   65  45  47 S13       29.90F
BRIDGEPORT     PTSUNNY   67  49  52 S14G21    29.91F
DECATUR        PTSUNNY   61  46  57 S18G24    29.91F
DENTON         CLOUDY    59  45  59 S13       29.94F
MCKINNEY       CLOUDY    58  46  64 S15       29.95F
BONHAM         CLOUDY    57  43  58 S10       29.96F
GREENVILLE       N/A     59  43  55 S12G17    29.96F
ROCKWALL       CLOUDY    59  44  58 S17G26    29.96F
TERRELL        LGT RAIN  59  45  59 S12       29.97F
WAXAHACHIE     CLOUDY    59  50  71 S14G23    29.96F
CLEBURNE       CLOUDY    57  48  72 S10G17    29.95F
GRANBURY       CLOUDY    64  52  65 S10G21    29.93F
$$

TXZ083>090-098>101-113>116-127>130-139>142-154-155-262000-
WESTERN NORTH TEXAS

CITY           SKY/WX    TMP DP  RH WIND       PRES   REMARKS
WICHITA FALLS  PTSUNNY   61  38  42 SW17      29.89F
WF-KICKAPOO    CLOUDY    57  38  48 SW8       29.91F
VERNON         SUNNY     57  28  33 W5        29.90F
ABILENE        MOSUNNY   67  47  48 SW15      29.89F
ABILENE-DYESS  MOSUNNY   68  42  38 W14       29.87F
GRAHAM         MOSUNNY   66  46  48 SW8G16    29.87F
BRECKENRIDGE   MOSUNNY   70  46  42 W9        29.89F HAZE
CISCO          SUNNY     68  48  49 SW14G22   29.90F
RANGER         SUNNY     66  48  52 W17G24    29.91F
MINERAL WELLS  CLOUDY    67  49  52 S13       29.90F
STEPHENVILLE   CLOUDY    64  52  64 S14G21    29.94F
COMANCHE       SUNNY     66  54  63 SW20G33   29.90F
BROWNWOOD      MOSUNNY   68  54  60 SW13      29.91F
COLEMAN        MOSUNNY   71  51  50 SW15G23   29.89F
$$

TXZ143>147-156>162-174-175-262000-
CENTRAL TEXAS

CITY           SKY/WX    TMP DP  RH WIND       PRES   REMARKS
WACO           CLOUDY    59  49  69 S10       29.97F
WACO-MCGREGOR  CLOUDY    60  51  72 S13       29.97F
HILLSBORO      CLOUDY    58  49  70 S17       29.96F
CORSICANA      CLOUDY    62  50  64 S17       29.97F
MEXIA          CLOUDY    63  50  62 S17G23    29.96F
HEARNE         CLOUDY    64  55  70 SE10G16   29.98F
CAMERON        CLOUDY    66  56  68 S7        29.96F
TEMPLE         CLOUDY    60  50  69 S14       29.97F
KILLEEN        CLOUDY    57  49  75 SE7       29.95F
KILLEEN-SKYLRK CLOUDY    59  50  72 S9        29.97F
FORT HOOD      HAZE      59  50  72 S8        29.93F VSB 1
GATESVILLE     PTSUNNY   63  52  67 S10       29.97F
HAMILTON       CLOUDY    64  53  67 SW20      29.95F
LAMPASAS       CLOUDY    61  55  81 S8        29.94F
$$

TXZ095>097-106>112-122>126-135>138-148>153-164>167-262000-
EAST TEXAS

CITY           SKY/WX    TMP DP  RH WIND       PRES   REMARKS
PARIS          CLOUDY    57  36  44 S13       29.99F
SULPHUR SPRNGS CLOUDY    59  38  46 S14       30.00F
MOUNT PLEASANT MOSUNNY   59  35  40 SE9       30.00F
GILMER         CLOUDY    62  38  41 SE13G20   29.99F
MINEOLA        CLOUDY    61  43  51 S9        29.98F
TYLER          CLOUDY    61  44  53 S15       29.98F
LONGVIEW       CLOUDY    63  41  44 S10       30.01F
MARSHALL       CLOUDY    62  33  33 S8        30.05F
PALESTINE      CLOUDY    63  50  63 SE8       30.00F
JACKSONVILLE   CLOUDY    62  47  59 S13       30.02F
HENDERSON      CLOUDY    62  43  49 S8        30.02F
CENTER         CLOUDY    68  46  43 S10G17    30.05S
NACOGDOCHES    CLOUDY    63  46  55 S6        30.02F
LUFKIN         PTSUNNY   66  52  60 S15G24    30.02F
$$

SUPPLEMENTAL OBSERVATIONS (CENTRAL)

CITY           SKY/WX    TMP DP  RH WIND       PRES   REMARKS
DENISON DAM      N/A     57  43  58 S8          N/A
CADDO GRASSLND   N/A     57  37  47 S7          N/A
PAT MAYSE LAKE   N/A     55  30  38 SE8         N/A
GREENVILLE       N/A     59  41  51 S14G22      N/A
CEDAR HILL       N/A     61  48  63 S13G21      N/A
ATHENS           N/A     61  45  55 S14         N/A
LAKE LIMESTONE   N/A     64  50  59 S7G17       N/A
MCGREGOR         N/A     59  48  67 S10         N/A
TEMPLE           N/A     61  50  67 S9          N/A
$$

SUPPLEMENTAL OBSERVATIONS (WEST)

CITY           SKY/WX    TMP DP  RH WIND       PRES   REMARKS
MILLERS CREEK    N/A     64  36  34 W9G18       N/A
POSSUM KINGDOM   N/A     70  46  43 SW12G20     N/A
LBJ GRASSLAND    N/A     64  48  55 S13G24      N/A
GRANBURY         N/A     63  52  67 S13G23      N/A
COMANCHE         N/A     66  52  59 SW18G30     N/A
HAMBY            N/A     70  48  46 SW12        N/A
IVIE RESERVOIR   N/A     73  52  46 SW20G28     N/A
COLORADO BEND    N/A     61  52  72 SW7         N/A
$$

SUPPLEMENTAL OBSERVATIONS (EAST)

CITY           SKY/WX    TMP DP  RH WIND       PRES   REMARKS
CLARKSVILLE      N/A     57  32  38 SE12        N/A
TEXARKANA        N/A     61  28  29 SE7         N/A
LINDEN           N/A     64  32  29 SE5G13      N/A
CADDO LAKE       N/A    N/A N/A N/A S5          N/A
GILMER           N/A     63  36  36 S12         N/A
HENDERSON        N/A     63  43  48 S8G17       N/A
LUFKIN           N/A     66  52  59 MISG        N/A
N SABINE NF      N/A     68  41  37 MISG        N/A
S SABINE NF      N/A     68  45  42 SE6         N/A
$$

SUPPLEMENTAL OBSERVATIONS ARE A COLLECTION OF AUTOMATED INSTRUMENTS
THAT ARE MAINTAINED BY A VARIETY OF FEDERAL AND STATE AGENCIES.
CERTAIN ELEMENTS...SUCH AS HUMIDITY VALUES AND SUSTAINED WIND
SPEEDS...MAY BE APPROXIMATED.





USA.gov is the U.S. government's official web portal to all federal, state and local government web resources and services.